Location: Banff
(51.1667°N, 115.5667°W)
Time: 07:14:54
(UTC+00:00)

S-56A Canister/Altair - Pass Details

Date: 01 December 2020
Orbit: 633 x 2499 km, 38.9° (Epoch: 21 January)

Event Time Altitude Azimuth Distance (km) Brightness Sun altitude
Rises 02:31:12 0° 226° (SW) 5,802 12.7 -26.1°
Reaches altitude 10° 02:35:54 10° 217° (SW) 4,550 11.9 -26.9°
Maximum altitude 02:45:35 30° 164° (SSE) 2,627 10.0 -28.4°
Enters shadow 02:47:14 29° 147° (SSE) 2,579 9.9 -28.6°
Drops below altitude 10° 02:52:41 10° 107° (ESE) 3,291 - -29.5°
Sets 02:55:30 0° 96° (E) 4,012 - -29.9°
